Tracking 29487 objects as of 11-Sep-2024
HD Live streaming from Space Station
objects crossing your sky now

INS-2TD

Track INS-2TD now!
10-day predictions
INS-2TD is classified as:


NORAD ID: 51658
Int'l Code: 2022-013C
Perigee: 386.2 km
Apogee: 395.1 km
Inclination: 97.5 °
Period: 92.2 minutes
Semi major axis: 6761 km
RCS: Unknown
Launch date: February 14, 2022
Source: India (IND)
Launch site: SRIHARIKOTA (SRI)

Uplink (MHz):
Downlink (MHz): 435.080
Beacon (MHz):
Mode: 1200bps FSK
Call sign: INDUSR
Status: Active

Your satellite tracking list
Your tracking list is empty




NASA's NSSDC Master Catalog

Two Line Element Set (TLE):
1 51658U 22013C   24254.60325672  .00185522  00000-0  21283-2 0  9992
2 51658  97.5085 281.7230 0006596 169.7906 190.3486 15.61439415143242
Source of the keplerian elements: AFSPC